Regional Weather Roundup
Issued by NWS Wakefield, VA

Home | Current Version | Previous Version | Text Only | Print | Product List | Glossary Off
Versions: 1 2 3 4 5 6 7 8 9 10 11 12 13 14 15 16 17 18 19 20 21 22 23 24 25 26 27 28 29 30 31 32 33 34 35 36 37 38 39 40 41 42 43 44 45 46 47 48 49 50

000
ASUS41 KAKQ 040415
RWRAKQ

REGIONAL WEATHER ROUNDUP
NATIONAL WEATHER SERVICE WAKEFIELD VA
1200 AM EDT WED MAY 04 2016

Note: "fair" indicates few or no clouds below 12,000 feet with no
significant weather and/or obstructions to visibility. * = Denotes
station may not report precipitation (e.g., rain,snow,etc.),
thunder or fog.

VAZ042-051-052>054-056-040500-
NORTHERN VIRGINIA

CITY           SKY/WX    TMP DP  RH WIND       PRES   REMARKS
WASH NATIONAL  LGT RAIN  59  55  87 NE9       29.79F
DULLES         LGT RAIN  57  55  93 E8        29.78F FOG
FORT BELVOIR   LGT RAIN  57  55  94 VRB1      29.78F
QUANTICO       CLOUDY    60  56  86 NE9       29.79S
FREDERICKSBRG* NOT AVBL
STAFFORD*      CLOUDY    58  56  92 NW5       29.82S FOG
WARRENTON      RAIN      59  54  83 CALM      29.77F
CULPEPER*      CLOUDY    58  58  99 CALM      29.79F
MANASSAS*      CLOUDY    57  57 100 SE5       29.78F
LEESBURG*      RAIN      59  59 100 CALM      29.79F
WINCHESTER     LGT RAIN  57  55  94 CALM      29.78F
FRONT ROYAL*   CLOUDY    57  57 100 CALM      29.78F
LURAY*         CLOUDY    57  57 100 CALM      29.78F
$$

VAZ048-049-060>072-079>083-040500-
CENTRAL AND SOUTH CENTRAL VIRGINIA

CITY           SKY/WX    TMP DP  RH WIND       PRES   REMARKS
RICHMOND       CLOUDY    60  59  96 N6        29.76R
CHESTERFIELD*  CLOUDY    61  48  63 NE5       29.77R
PETERSBURG*    CLOUDY    62  62 100 CALM      29.76R
HANOVER        LGT RAIN  60  59  96 E3        29.76F FOG
TAPPAHANNOCK*  CLOUDY    61  61 100 N3        29.76S FOG
QUINTON*       CLOUDY    60  60 100 CALM      29.76R
CHARLOTTSVILLE FAIR      60  58  92 NE3       29.76F FOG
GORDONSVILLE*  FOG       58  58 100 CALM      29.76F VSB 1/2
ORANGE*        MOCLDY    59  59 100 CALM      29.79F FOG
LOUISA*        CLOUDY    63  63 100 N3        29.76S
BUMPASS*       CLOUDY    59  59 100 N3        29.77R
FARMVILLE*     CLOUDY    61  61 100 N3        29.76R
CREWE*         CLOUDY    60  60 100 CALM      29.77R
FORT PICKETT*  NOT AVBL
CHASE CITY*    MOCLDY    62  60  94 N5        29.74F
CLARKSVILLE*   CLOUDY    63  63 100 CALM      29.74S
SOUTH HILL*    MOCLDY    62  62 100 NW6       29.80R
LAWRENCEVILLE* FAIR      62  62 100 CALM      29.73S
EMPORIA*       FAIR      61  61 100 CALM      29.74F
$$

VAZ088>098-040500-
SOUTHEAST VIRGINIA

CITY           SKY/WX    TMP DP  RH WIND       PRES   REMARKS
NORFOLK        MOCLDY    63  60  90 CALM      29.72F
VIRGINIA BEACH LGT RAIN  66  60  81 SW5       29.72S
NORFOLK NAVAL  CLOUDY    63  61  93 SE3       29.74F
WEST POINT*    CLOUDY    61  59  96 SE6       29.76R
SALUDA*        CLOUDY    59  59  99 E9        29.73F
NEWPORT NEWS   CLOUDY    63  61  93 E5        29.73F
LANGLEY AFB    CLOUDY    61  59  94 E7        29.73F
FORT EUSTIS    CLOUDY    62  62  97 SE5       29.72S
WILLIAMSBURG*  CLOUDY    63  63 100 SE3       29.75S
HR EXEC AP*    MOCLDY   N/A N/A N/A S3        29.76S
FRANKLIN*      FAIR      61  60  96 CALM      29.73F
US460-WAKEFLD  MOCLDY    63  59  87 CALM      29.74F
$$

VAZ020-022-025-037-045-040500-
WEST CENTRAL AND SOUTHWEST VIRGINIA

CITY           SKY/WX    TMP DP  RH WIND       PRES   REMARKS
STAUNTON*      MOCLDY    59  58  98 NE5       29.80F
WAYNESBORO*    CLOUDY    58  54  85 N5        29.78F
HOT SPRINGS VA FAIR      47  47 100 W10       29.81F
LYNCHBURG      FAIR      56  54  93 CALM      29.78F
DANVILLE       CLOUDY    62  60  93 NW3       29.76R
SOUTH BOSTON*  CLOUDY    64  61  88 NW5       29.75R
MARTINSVILLE   MOCLDY    53  53  99 CALM      29.80F
ROANOKE        FAIR      59  48  67 NE6       29.81F
BLACKSBURG     FAIR      53  48  84 NW6       29.85F
DUBLIN*        FAIR      56  50  81 NW5       29.84F
MARION*        CLOUDY    53  47  82 CALM      29.87F
HILLSVILLE*    FAIR      54  46  76 NW14      29.82F
RICHLANDS*     CLOUDY    52  33  49 CALM      29.87F
WISE*          FAIR      50  39  66 CALM      29.89S
ABINGDON*      CLOUDY    57  46  68 N10       29.86S
$$

MDZ021>025-VAZ099-100-040500-
SOUTHERN MARYLAND AND THE DELMARVA PENINSULA

CITY           SKY/WX    TMP DP  RH WIND       PRES   REMARKS
PATUXENT RIVER CLOUDY    58  56  93 E10       29.75S FOG
BAY BRIDGE APT NOT AVBL
LEONARDTOWN    CLOUDY    57  55  94 CALM      29.78R
DOVER          CLOUDY    52  52 100 NE9       29.78F
GEORGETOWN     CLOUDY    50  49  96 E13       29.80S
EASTON         CLOUDY   N/A N/A N/A E8        29.82S
CAMBRIDGE      CLOUDY    52  52 100 E8        29.78R
SALISBURY      CLOUDY    51  51 100 E12       29.78R
OCEAN CITY     CLOUDY    50  50 100 NE12      29.77F FOG
WALLOPS ISLAND CLOUDY    53  52  96 NE14      29.75F
ACCOMACK*      CLOUDY    54  16  22 E8        29.73F
$$

NCZ012>017-030>032-040500-
NORTH CENTRAL AND EASTERN NORTH CAROLINA

CITY           SKY/WX    TMP DP  RH WIND       PRES   REMARKS
ROANOKE RAPIDS MOCLDY    61  61 100 CALM      29.73R
RALEIGH        LGT RAIN  64  63  96 SW8       29.76S FOG
ELIZABETH CITY LGT RAIN  64  59  83 N3        29.74F
AHOSKIE*       CLOUDY    61  59  93 E3        29.73F
EDENTON*       CLOUDY    70  70 100 CALM      29.75S
CURRITUCK*     NOT AVBL
KILL DEVIL HLS CLOUDY    69  67  94 W5        29.73S
MANTEO         NOT AVBL
CAPE HATTERAS  CLOUDY    70  69  97 W6        29.75F
TARBORO*       LGT RAIN  63  61  91 CALM      29.75S
GOLDSBORO      CLOUDY    64  64 100 NW6       29.72F
WASHINGTON     CLOUDY    64  62  93 CALM      29.73F
GREENVILLE     RAIN      64  63  94 SW8       29.77S
NEW BERN       MOCLDY    68  65  90 CALM      29.75S
WILMINGTON     MOCLDY    71  70  96 S12       29.75F
$$

VAZ048-040500-
ELSEWHERE

CITY           SKY/WX    TMP DP  RH WIND       PRES   REMARKS
HARRISBURG PA  CLOUDY    57  52  83 E3        29.78F
BALTIMORE      LGT RAIN  57  52  83 N3        29.79S
ANNAPOLIS      CLOUDY    57  53  86 E5        29.78F
ANDREWS AFB    DRIZZLE   57  54  90 N8        29.78R
PHILADELPHIA   CLOUDY    53  48  83 E12       29.82F
HENDERSON NC   CLOUDY    65  65 100 NW3       29.74S
GREENSBORO     MOCLDY    64  58  80 N5        29.76S
ROCKY MOUNT    TSTM      61  60  97 SE8       29.73F FOG
$$

VAZ100-040500-
MARINE

STATION/POSITION TIME  TEMP    WIND        PRES    WAVE   SWELL
                       AIR SEA DIR/SP/G            HT/PER HT/PER
                 (UTC) (F)     (DEG/KT/KT) (MB)    (FT/S) (FT/S)
BRANDYWINE LGT   0300   50      70/ 20/ 24 1008.8F
CAPE MAY NJ      0300   50 58   60/  8/ 17 1008.7F
LEWES DE         0300   51 57   60/ 19/ 21 1008.7F
15NM E FENWICK I 0350   49 52              1008.0F   4/ 8
OCEAN-CITY-INLET 0300   50 55   70/ 11/ 15 1007.6F
WACHAPREAGUE VA  0300   55 65   70/ 11/ 13 1007.8R
THOMAS POINT MD  0400   56 59   40/  9/ 10 1009.8F
GOOSES REEF MD   0300   58 60   70/ 12/ 14 1009.1S   1/ 3
COVE POINT MD    0300   58      70/ 13/ 14 1008.1F
SOLOMONS ISLAND  0300   59 61   40/  7/ 10   N/A
BISHOPS HEAD MD  0300   58 65   60/ 11/ 12 1006.9R
PINEY POINT MD   0300           90/  5/  7   N/A
POTOMAC MD       0300   60 61  100/ 10/ 12 1006.3R   2/ 3
CAMBRIDGE MD     0300   56 63   60/ 12/ 14 1007.2S
LEWISETTA VA     0300   61 64   90/ 11/ 12 1006.7R
RAPPAHANNOCK LGT 0300           90/ 19/ 21 1007.5F
STINGRAY PT      0300   60 62  130/ 14/ 17 1007.2F   3/ 3
YORK RVR RNG VA  0300   60     100/ 17/ 19 1006.5F
YORKTOWN VA      0300   62 64   70/ 17/ 19 1007.1F
JAMESTOWN VA     0300   62 68  120/  8/ 12   N/A
DOMINION TERM VA 0300   63     110/  5/  8 1007.4R
KIPTOPEKE VA     0300      63   90/ 11/ 17   N/A
CHES BAY BRIDGE  0300   62 61   70/  7/  8 1006.3F
CAPE HENRY VA    0300   62     110/  1/  3   N/A
CHESAPEAKE LGHT  0300   61      90/ 10/ 10 1008.1S
WILLOUBY STN VA  0300   62     100/  6/  7 1008.3S
CAPE HENRY BUOY  0312      60                N/A     3/ 7
CAPE CHARLES BUO 0326      60                N/A     2/ 7   2/ 7
OFFSHORE WE BUOY 0321      57                N/A     3/ 7   3/ 7
64NM E OF VA BCH 0350   59 54  200/  4/  4 1006.7F   3/ 7   3/ 7
44100 DUCK FRF   0324      61                N/A     3/ 9
44056 DUCK FRF   0311      59                N/A     2/ 9
OREGON INLET NC  0300   70 71  190/ 15/ 18 1006.7F
HATTERAS NC      0300   71 70  220/  9/ 13 1007.3F
DIAMOND SHLS NC  0350   72 72  250/ 12/ 14 1007.6R   4/ 5   2/ 6
CAPE LOOKOUT NC  0400   70     170/  6/  7 1006.9F
$$



USA.gov is the U.S. government's official web portal to all federal, state and local government web resources and services.